Weather History for Russell, KS

Change the Weather History Date:

Saturday, February 11, 2012

  Actual Average Record
Temperature  
Mean Temperature 14 °F -  
Max Temperature 23 °F 42 °F 81 °F (1951)
Min Temperature 6 °F 18 °F -10 °F (1981)
Degree Days  
Heating Degree Days 50    
Moisture  
Dew Point -1 °F    
Average Humidity 54    
Maximum Humidity 76    
Minimum Humidity 35    
Precipitation  
Precipitation 0.00 in - - ()
Sea Level Pressure  
Sea Level Pressure 30.73 in    
Wind  
Wind Speed 12 mph (NE)    
Max Wind Speed 18 mph    
Max Gust Speed 28 mph    
Visibility 10 miles    
Events      
Averages and records for this station are not official NWS values.
T = Trace of Precipitation, MM = Missing Value Source: NWS Daily Summary

Daily Weather History Graph

Daily Weather History Graph

Search for Another Location

Airport:

Trip Planner

Search our weather history database for the weather conditions in past years. The results will help you decide how hot, cold, wet, or windy it might be!

Date:

Astronomy

Feb. 11, 2012 Rise Set
Actual Time 7:31 AM CST 6:07 PM CST
Civil Twilight 7:04 AM CST 6:35 PM CST
Nautical Twilight 6:32 AM CST 7:06 PM CST
Astronomical Twilight 6:01 AM CST 7:37 PM CST
Moon 10:54 PM CST (2/11) 9:18 AM CST (2/11)
Length of Visible Light 11h 31m
Length of Day
10h 36m
Waning Gibbous, 82% of the Moon is Illuminated
Feb 11
Waning Gibbous
Feb 14
Last Quarter
Feb 21
New
Feb 29
First Quarter
Mar 8
Full

Hourly Weather History & Observations

Time (CST) Temp. Windchill Dew Point Humidity Pressure Visibility Wind Dir Wind Speed Gust Speed Precip Events Conditions
12:53 AM 10.9 °F -6.5 °F -0.0 °F 61% 30.62 in 10.0 mi NNE 17.3 mph - N/A   Clear
1:53 AM 9.0 °F -9.5 °F -2.0 °F 61% 30.65 in 10.0 mi NNE 18.4 mph 27.6 mph N/A   Scattered Clouds
2:53 AM 7.0 °F -11.6 °F -4.0 °F 61% 30.69 in 10.0 mi NNE 17.3 mph - N/A   Overcast
3:53 AM 7.0 °F -9.8 °F -2.9 °F 64% 30.69 in 10.0 mi NNE 13.8 mph - N/A   Overcast
4:53 AM 7.0 °F -9.1 °F -4.0 °F 61% 30.74 in 10.0 mi North 12.7 mph - N/A   Overcast
5:53 AM 7.0 °F -9.1 °F -4.0 °F 61% 30.78 in 10.0 mi North 12.7 mph - N/A   Overcast
6:53 AM 6.1 °F -9.5 °F -4.0 °F 63% 30.79 in 10.0 mi North 11.5 mph - N/A   Overcast
7:53 AM 6.1 °F -6.8 °F -5.1 °F 60% 30.81 in 10.0 mi North 8.1 mph - N/A   Overcast
8:53 AM 7.0 °F -9.1 °F -4.0 °F 61% 30.82 in 10.0 mi North 12.7 mph - N/A   Partly Cloudy
9:53 AM 10.0 °F -3.7 °F -4.0 °F 53% 30.82 in 10.0 mi North 10.4 mph - N/A   Clear
10:53 AM 12.9 °F -0.2 °F -2.0 °F 51% 30.82 in 10.0 mi NNE 10.4 mph - N/A   Clear
11:53 AM 16.0 °F 6.3 °F -2.0 °F 45% 30.81 in 10.0 mi NE 6.9 mph - N/A   Clear
12:53 PM 19.9 °F 11.1 °F -2.0 °F 38% 30.79 in 10.0 mi NE 6.9 mph - N/A   Clear
1:53 PM 21.0 °F - -2.0 °F 36% 30.77 in 10.0 mi Calm Calm - N/A   Clear
2:53 PM 21.9 °F 13.4 °F -2.0 °F 35% 30.73 in 10.0 mi ENE 6.9 mph - N/A   Clear
3:53 PM 21.9 °F 17.2 °F -2.0 °F 35% 30.71 in 10.0 mi Variable 3.5 mph - N/A   Clear
4:53 PM 23.0 °F 17.0 °F -0.9 °F 35% 30.70 in 10.0 mi East 4.6 mph - N/A   Clear
5:53 PM 19.9 °F 13.4 °F 1.0 °F 44% 30.69 in 10.0 mi ENE 4.6 mph - N/A   Clear
6:53 PM 17.1 °F 11.7 °F 1.0 °F 50% 30.71 in 10.0 mi East 3.5 mph - N/A   Clear
7:53 PM 17.1 °F 11.7 °F 1.9 °F 52% 30.71 in 10.0 mi East 3.5 mph - N/A   Clear
8:53 PM 15.1 °F 5.2 °F 3.0 °F 59% 30.73 in 10.0 mi ESE 6.9 mph - N/A   Clear
9:53 PM 12.9 °F 2.6 °F 3.0 °F 65% 30.71 in 10.0 mi SE 6.9 mph - N/A   Clear
10:53 PM 12.0 °F 1.5 °F 3.9 °F 70% 30.68 in 10.0 mi SE 6.9 mph - N/A   Clear
11:53 PM 10.0 °F -1.9 °F 3.9 °F 76% 30.67 in 10.0 mi SSE 8.1 mph - N/A   Clear